Regional Weather Roundup
Issued by NWS

Home | Current Version | Previous Version | Graphics & Text | Print | Product List | Glossary Off
Versions: 1 2 3 4 5 6 7 8 9 10 11 12 13 14 15 16 17 18 19 20 21 22 23 24 25 26 27 28 29 30 31 32 33 34 35 36 37 38 39 40 41 42 43 44 45 46 47 48 49 50

164
ASUS43 KDMX 131208
RWRIA

WEATHER ROUNDUP FOR IOWA
NATIONAL WEATHER SERVICE DES MOINES IA
600 AM CST SAT FEB 13 2016

NOTE: "FAIR" INDICATES FEW OR NO CLOUDS BELOW 12,000 FEET WITH NO
SIGNIFICANT WEATHER AND/OR OBSTRUCTIONS TO VISIBILITY.

* - THESE STATIONS ARE NOT NWS STATIONS...THUS NOT UNDER NWS
QUALITY CONTROL.  THEY ALSO DO NOT REPORT WEATHER SUCH
AS PRECIPITATION OR FOG.

IAZ001>003-012>014-020>022-031>034-043>046-131300-
   NORTHWEST IOWA

CITY           SKY/WX    TMP DP  RH WIND       PRES   REMARKS
CARROLL *      CLOUDY     1  -6  71 NE5       30.62R WCI  -8
CHEROKEE *     CLOUDY     1  -6  73 E3        30.60S
DENISON *      CLOUDY     1  -4  78 CALM      30.59R
LE MARS *      CLOUDY     3  -4  72 SE6       30.61S WCI  -8
ORANGE CITY *  CLOUDY     0  -6  78 E7        30.56S WCI -13
SHELDON *      CLOUDY    -2  -8  78 E6        30.56R WCI -14
SIOUX CITY     CLOUDY     6  -4  63 SE9       30.61R WCI  -8
6HR MIN TEMP:   5; 6HR MAX TEMP:   8;

SPENCER        CLOUDY    -3 -10  72 NE7       30.57F WCI -16
6HR MIN TEMP:  -8; 6HR MAX TEMP:  -3;

STORM LAKE *   CLOUDY     0  -8  71 E8        30.57F WCI -15
$$

IAZ055>058-069>071-079>083-090>094-131300-
   SOUTHWEST IOWA

CITY           SKY/WX    TMP DP  RH WIND       PRES   REMARKS
ATLANTIC *     CLOUDY     5  -2  72 E6        30.62S WCI  -6
AUDUBON *      CLEAR      1  -4  78 NE6       30.61R WCI -10
CLARINDA *     CLOUDY    10   1  67 NE3       30.66R
COUNCIL BLFS * CLOUDY     9   1  72 E6        30.60S WCI  -1
CRESTON *      CLOUDY     5  -4  66 E5        30.61S WCI  -4
HARLAN  *      MOCLDY     3  -2  78 E5        30.65S WCI  -6
LAMONI         CLOUDY     6  -2  69 NE3       30.62R
6HR MIN TEMP:   5; 6HR MAX TEMP:   7;

RED OAK *      CLOUDY     9   1  72 SE5       30.63S WCI   0
SHENANDOAH *   CLOUDY    12   1  62 E6        30.64S WCI   3
$$

IAZ047>049-059>061-072>074-084-131300-
   CENTRAL IOWA

CITY           SKY/WX    TMP DP  RH WIND       PRES   REMARKS
AMES           CLOUDY     1  -6  72 N6        30.64R WCI -10
6HR MIN TEMP:   0; 6HR MAX TEMP:   4;

ANKENY *       MOCLDY     3  -6  66 N7        30.64F WCI  -9
BOONE *        PTCLDY     0  -8  71 N7        30.60S WCI -13
CHARITON *     CLOUDY     3  -4  72 N5        30.62S WCI  -6
DES MOINES     CLOUDY     4  -5  66 N5        30.63S WCI  -5
6HR MIN TEMP:   2; 6HR MAX TEMP:   5;

GRINNELL*      PTCLDY     1  -4  78 N8        30.62S WCI -12
KNOXVILLE *    CLOUDY     3  -6  66 N6        30.62S WCI  -8
MARSHALLTOWN   CLOUDY    -3  -8  79 N3        30.62S
6HR MIN TEMP:  -3; 6HR MAX TEMP:   1;

NEWTON *       CLEAR      1  -6  71 NE9       30.62S WCI -14
PELLA *        PTCLDY     4  -3  72 N3        30.64F
$$

IAZ004>006-015-016-023>025-035-036-131300-
   NORTH CENTRAL IOWA

CITY           SKY/WX    TMP DP  RH WIND       PRES   REMARKS
ALGONA *       CLEAR     -4  -8  84 N7        30.58F WCI -18
CLARION *      CLEAR     -8 -13  77 CALM      30.61S
ESTHERVILLE    CLOUDY    -5  -9  83 N9        30.57F WCI -22
6HR MIN TEMP:  -8; 6HR MAX TEMP:  -3;

FORT DODGE *   CLOUDY    -4 -11  71 CALM      30.61S
MASON CITY     CLOUDY    -7 -12  79 NW6       30.60S WCI -20
6HR MIN TEMP:  -8; 6HR MAX TEMP:  -3;

FOREST CITY *  CLEAR     -6  -9  84 CALM      30.59S
WEBSTER CITY * CLEAR     -6 -11  77 N5        30.59F WCI -17
IOWA FALLS *     N/A     -6 -11  77 NW3       30.62S
$$

IAZ007>011-017>019-026>030-037>042-050>054-066-131300-
   NORTHEAST IOWA

CITY           SKY/WX    TMP DP  RH WIND       PRES   REMARKS
CEDAR RAPIDS   PTCLDY     1  -6  72 N8        30.62R WCI -13
6HR MIN TEMP:   1; 6HR MAX TEMP:   5;

CHARLES CITY * CLEAR     -4 -15  59 NW6       30.61R WCI -16
CLINTON *      PTCLDY     0  -6  76 NW5       30.61S WCI -10
DECORAH *      CLEAR     -8 -15  71 CALM      30.57R
DUBUQUE        CLOUDY    -1 -11  62 N7        30.56S WCI -14
6HR MIN TEMP:  -1; 6HR MAX TEMP:   4;

MONTICELLO *   CLEAR      0  -9  65 NW6       30.61S WCI -12
OELWEIN *      PTCLDY    -4 -13  65 NW8       30.61R WCI -19
WATERLOO       PTCLDY    -4 -11  72 CALM      30.63R
6HR MIN TEMP:  -6; 6HR MAX TEMP:   1;

$$

IAZ064-065-067-068-078-131300-
   EAST CENTRAL IOWA

CITY           SKY/WX    TMP DP  RH WIND       PRES   REMARKS
DAVENPORT        N/A    N/A N/A N/A MISG      30.62S
6HR MIN TEMP:   0; 6HR MAX TEMP:   7;

IOWA CITY      PTCLDY     4  -8  57 NW7       30.66R WCI  -8
6HR MIN TEMP:   3; 6HR MAX TEMP:   8;

MT. PLEASANT * CLOUDY     7  -1  67 NW8       30.63S WCI  -5
MUSCATINE *    CLEAR      3  -4  72 NW7       30.66S WCI  -9
QUAD CITIES    CLOUDY     4  -6  63 NW6       30.63R WCI  -7
6HR MIN TEMP:   4; 6HR MAX TEMP:   9;

$$

IAZ062-063-075>077-085>089-095>099-131300-
   SOUTHEAST IOWA

CITY           SKY/WX    TMP DP  RH WIND       PRES   REMARKS
BURLINGTON     CLOUDY     4  -3  73 N6        30.63R WCI  -7
6HR MIN TEMP:   4; 6HR MAX TEMP:   9;

FAIRFIELD *    CLOUDY     5  -4  66 N7        30.64R WCI  -7
FORT MADISON * CLEAR      5   0  78 NW3       30.64R
KEOKUK *       CLEAR      5   0  78 NW5       30.64R WCI  -4
OSKALOOSA *      N/A      4  -2  75 N9        30.64S WCI -11
CENTERVILLE *  CLOUDY     5   0  78 N6        30.63S WCI  -6
OTTUMWA        PTCLDY     5  -2  72 N8        30.63R WCI  -8
6HR MIN TEMP:   1; 6HR MAX TEMP:   6;

WASHINGTON *   CLEAR      3  -6  66 N8        30.65S WCI -10
$$

ABBREVIATIONS USED IN REMARKS
   TC - TEMPERATURES IN CELSIUS
  WCI - WIND CHILL INDEX
   HX - HEAT INDEX
  VSB - VISIBILITY
$$





USA.gov is the U.S. government's official web portal to all federal, state and local government web resources and services.